CAPE
28 30 29 21 21 16 9 2 1 1 0 0 0 0 0 0 0 0 0 0 0 0 0 0 0 0 0 0 0 0 0 0 0 0 0 0 0 0 0 0 0 0 0 0 0 0 0
22 20 22 22 18 11 3 3 3 3 1 1 1 0 0 0 0 0 0 0 0 0 0 0 0 0 0 0 0 0 0 0 0 0 0 0 0 0 0 0 0 0 0 0 0 0 0
15 14 12 15 13 10 5 2 2 2 2 1 1 0 0 0 0 0 0 0 0 0 0 0 0 0 0 0 0 0 0 0 0 0 0 0 0 0 0 0 0 0 0 0 0 0 0
13 15 10 8 4 3 2 1 4 1 0 0 0 0 0 0 0 0 0 0 0 0 0 0 0 0 0 0 0 0 0 0 0 0 0 0 0 0 0 0 0 0 0 0 0 0 0
19 20 12 6 6 6 6 4 3 2 1 0 0 0 0 0 0 0 0 0 0 0 0 0 0 0 0 0 0 0 0 0 0 0 0 0 0 0 0 0 0 0 0 0 0 0 0
12 10 11 10 8 8 6 4 3 2 1 0 0 0 0 0 0 0 0 0 0 0 0 0 0 0 0 0 0 0 0 0 0 0 0 0 0 0 0 0 0 0 0 0 0 0 0
14 8 7 9 8 7 5 4 2 2 1 0 0 0 0 0 0 0 0 0 0 0 0 0 0 0 0 0 0 0 0 0 0 0 0 0 0 0 0 0 0 0 0 0 0 0 0
13 10 8 6 4 4 4 3 2 2 1 0 0 0 0 0 0 0 0 0 0 0 0 0 0 0 0 0 0 0 0 0 0 0 0 0 0 0 0 0 0 0 0 0 0 0 0
10 7 6 4 3 3 2 3 3 2 1 0 0 0 0 0 0 0 0 0 0 0 0 0 0 0 0 0 0 0 0 0 0 0 0 0 0 0 0 0 0 0 0 0 0 0 0
7 5 3 2 1 2 2 3 3 2 0 0 0 0 0 0 0 0 0 0 0 0 0 0 0 0 0 0 0 0 0 0 0 0 0 0 0 0 0 0 0 0 0 0 0 0 0
5 3 1 1 0 0 1 3 2 0 0 0 0 0 0 0 0 0 0 0 0 0 0 0 0 0 0 0 0 0 0 0 0 0 0 0 0 0 0 0 0 0 0 0 0 0 0
3 2 1 0 0 0 1 4 1 0 0 0 0 0 0 0 0 0 0 0 0 0 0 0 0 0 0 0 0 0 0 0 0 0 0 0 0 0 0 0 0 0 0 0 0 0 0
7 6 3 1 0 0 0 0 0 0 0 0 0 0 0 0 0 0 0 0 0 0 0 0 0 0 0 0 0 0 0 0 0 0 0 0 0 0 0 0 0 0 0 0 0 0 0
10 8 5 1 0 0 0 0 0 0 0 0 0 0 0 0 0 0 0 0 0 0 0 0 0 0 0 0 0 0 0 0 0 0 0 0 0 0 0 0 0 0 0 0 0 0 0
7 5 2 0 0 0 0 0 0 0 0 0 0 0 0 0 0 0 0 0 0 0 0 0 0 0 0 0 0 0 0 0 0 0 0 0 0 0 0 0 0 0 0 0 0 0 0
3 1 0 0 0 1 0 0 0 0 0 0 0 0 0 0 0 0 0 0 0 0 0 0 0 0 0 0 0 0 0 0 0 0 0 0 0 0 0 0 0 0 0 0 0 0 0
1 1 0 0 0 1 2 0 0 0 0 0 0 0 0 0 0 0 0 0 0 0 0 0 0 0 0 0 0 0 0 0 0 0 0 0 0 0 0 0 0 0 0 0 0 0 0
1 1 1 0 2 0 1 0 0 0 0 0 0 0 0 0 0 0 0 0 0 0 0 0 0 0 0 0 0 0 0 0 0 0 0 0 0 0 0 0 0 0 0 0 0 0 0
2 2 0 0 0 0 0 0 0 0 0 0 0 0 0 0 0 0 0 0 0 0 0 0 0 0 0 0 0 0 0 0 0 0 0 0 0 0 0 0 0 0 0 0 1 30 7
2 1 0 0 0 0 0 0 0 0 0 0 0 0 0 0 0 0 0 0 0 0 0 0 0 0 0 0 0 0 0 0 0 0 0 0 0 0 0 0 0 0 0 0 0 28 2
1 0 0 0 0 0 0 0 0 0 0 0 0 0 0 0 0 0 0 0 0 0 0 0 0 0 0 0 0 0 0 0 0 0 0 0 0 0 0 0 0 0 0 0 0 0 18
1 0 0 0 0 0 0 0 0 0 0 0 0 0 0 0 0 0 0 0 0 0 0 0 0 0 0 0 0 0 0 0 0 0 0 0 0 0 0 0 0 0 0 0 0 4 5
0 0 0 1 0 0 0 0 0 0 0 0 0 0 0 0 0 0 0 0 0 0 0 0 0 0 0 0 0 0 0 0 0 0 0 0 0 5 0 0 1 0 0 0 0 0 4
0 0 0 0 0 0 0 0 0 0 0 0 0 0 0 0 0 0 0 0 0 0 0 0 0 0 0 0 0 0 0 0 0 0 0 0 0 12 17 13 0 0 0 0 4 3 12
0 0 0 0 0 0 0 0 0 0 0 0 0 0 0 0 0 0 0 0 0 0 0 0 0 0 0 0 0 0 0 0 0 0 0 0 1 14 15 14 1 0 0 5 14 8 0
1 0 0 0 0 0 0 0 0 0 0 0 0 0 0 0 0 0 0 0 0 0 0 0 0 0 0 0 0 0 0 0 0 0 0 0 0 44 38 47 11 0 0 8 12 39 43
5 3 1 0 0 0 0 0 0 0 0 0 0 0 0 0 0 0 0 0 0 0 0 0 0 0 0 0 0 1 0 0 0 0 0 0 1 27 78 88 37 0 10 11 35 61 73
5 7 7 2 2 0 0 0 0 0 0 0 0 0 0 0 0 0 0 0 0 0 0 0 0 0 0 0 0 0 1 0 0 0 0 2 11 18 12 46 14 0 18 37 78 62 105
10 13 3 5 2 4 0 0 0 0 0 0 0 0 0 0 0 0 0 0 0 0 0 0 0 0 0 0 0 4 5 7 4 10 0 0 0 24 17 19 8 18 32 53 129 90 130
CIN
-0 -1 -0 -1 -0 -1 -0 -0 -0 -0 -0 -0 -0 -0 -0 -0 -0 -0 -0 -0 -0 -0 -0 -0 -0 -0 -0 -0 -0 -0 -0 -0 -0 -0 -0 -0 -0 -0 -0 -0 -0 -0 -0 -0 -0 -0 -0
-0 -1 -1 -0 -0 -0 -0 -0 -0 -0 -0 -0 -0 -0 -0 -0 -0 -0 -0 -0 -0 -0 -0 -0 -0 -0 -0 -0 -0 -0 -0 -0 -0 -0 -0 -0 -0 -0 -0 -0 -0 -0 -0 -0 -0 -0 -0
-0 -0 -0 -0 -0 -0 -0 -0 -0 -0 -0 -0 -0 -0 -0 -0 -0 -0 -0 -0 -0 -0 -0 -0 -0 -0 -0 -0 -0 -0 -0 -0 -0 -0 -0 -0 -0 -0 -0 -0 -0 -0 -0 -0 -0 -0 -0
-0 -0 -0 -0 -0 -0 -0 -0 -0 -0 -0 -0 -0 -0 -0 -0 -0 -0 -0 -0 -0 -0 -0 -0 -0 -0 -0 -0 -0 -0 -0 -0 -0 -0 -0 -0 -0 -0 -0 -0 -0 -0 -0 -0 -0 -0 -0
-0 -0 -0 -0 -0 -0 -0 -0 -0 -0 -0 -0 -0 -0 -0 -0 -0 -0 -0 -0 -0 -0 -0 -0 -0 -0 -0 -0 -0 -0 -0 -0 -0 -0 -0 -0 -0 -0 -0 -0 -0 -0 -0 -0 -0 -0 -0
-0 -0 -0 -0 -0 -0 -0 -0 -0 -0 -0 -0 -0 -0 -0 -0 -0 -0 -0 -0 -0 -0 -0 -0 -0 -0 -0 -0 -0 -0 -0 -0 -0 -0 -0 -0 -0 -0 -0 -0 -0 -0 -0 -0 -0 -0 -0
-0 -0 -0 -0 -0 -0 -0 -0 -0 -0 -0 -0 -0 -0 -0 -0 -0 -0 -0 -0 -0 -0 -0 -0 -0 -0 -0 -0 -0 -0 -0 -0 -0 -0 -0 -0 -0 -0 -0 -0 -0 -0 -0 -0 -0 -0 -0
-0 -0 -0 -0 -0 -0 -0 -0 -0 -0 -0 -0 -0 -0 -0 -0 -0 -0 -0 -0 -0 -0 -0 -0 -0 -0 -0 -0 -0 -0 -0 -0 -0 -0 -0 -0 -0 -0 -0 -0 -0 -0 -0 -0 -0 -0 -0
-0 -0 -0 -0 -0 -0 -0 -0 -0 -0 -0 -0 -0 -0 -0 -0 -0 -0 -0 -0 -0 -0 -0 -0 -0 -0 -0 -0 -0 -0 -0 -0 -0 -0 -0 -0 -0 -0 -0 -0 -0 -0 -0 -0 -0 -0 -0
-0 -0 -0 -0 -0 -0 -0 -0 -0 -0 -0 -0 -0 -0 -0 -0 -0 -0 -0 -0 -0 -0 -0 -0 -0 -0 -0 -0 -0 -0 -0 -0 -0 -0 -0 -0 -0 -0 -0 -0 -0 -0 -0 -0 -0 -0 -0
-0 -0 -0 -0 -0 -0 -0 -0 -0 -0 -0 -0 -0 -0 -0 -0 -0 -0 -0 -0 -0 -0 -0 -0 -0 -0 -0 -0 -0 -0 -0 -0 -0 -0 -0 -0 -0 -0 -0 -0 -0 -0 -0 -0 -0 -0 -0
-0 -0 -0 -0 -0 -0 -0 -0 -0 -0 -0 -0 -0 -0 -0 -0 -0 -0 -0 -0 -0 -0 -0 -0 -0 -0 -0 -0 -0 -0 -0 -0 -0 -0 -0 -0 -0 -0 -0 -0 -0 -0 -0 -0 -0 -0 -0
-0 -0 -0 -0 -0 -0 -0 -0 -0 -0 -0 -0 -0 -0 -0 -0 -0 -0 -0 -0 -0 -0 -0 -0 -0 -0 -0 -0 -0 -0 -0 -0 -0 -0 -0 -0 -0 -0 -0 -0 -0 -0 -0 -0 -0 -0 -0
-0 -0 -0 -0 -0 -0 -0 -0 -0 -0 -0 -0 -0 -0 -0 -0 -0 -0 -0 -0 -0 -0 -0 -0 -0 -0 -0 -0 -0 -0 -0 -0 -0 -0 -0 -0 -0 -0 -0 -0 -0 -0 -0 -0 -0 -0 -0
-0 -0 -0 -0 -0 -0 -0 -0 -0 -0 -0 -0 -0 -0 -0 -0 -0 -0 -0 -0 -0 -0 -0 -0 -0 -0 -0 -0 -0 -0 -0 -0 -0 -0 -0 -0 -0 -0 -0 -0 -0 -0 -0 -0 -0 -0 -0
-0 -0 -0 -0 -0 -0 -0 -0 -0 -0 -0 -0 -0 -0 -0 -0 -0 -0 -0 -0 -0 -0 -0 -0 -0 -0 -0 -0 -0 -0 -0 -0 -0 -0 -0 -0 -0 -0 -0 -0 -0 -0 -0 -0 -0 -0 -0
-0 -0 -0 -0 -0 -0 -0 -0 -0 -0 -0 -0 -0 -0 -0 -0 -0 -0 -0 -0 -0 -0 -0 -0 -0 -0 -0 -0 -0 -0 -0 -0 -0 -0 -0 -0 -0 -0 -0 -0 -0 -0 -0 -0 -0 -0 -0
-0 -0 -0 -0 -0 -0 -0 -0 -0 -0 -0 -0 -0 -0 -0 -0 -0 -0 -0 -0 -0 -0 -0 -0 -0 -0 -0 -0 -0 -0 -0 -0 -0 -0 -0 -0 -0 -0 -0 -0 -0 -0 -0 -0 -0 -0 -0
-0 -0 -0 -0 -0 -0 -0 -0 -0 -0 -0 -0 -0 -0 -0 -0 -0 -0 -0 -0 -0 -0 -0 -0 -0 -0 -0 -0 -0 -0 -0 -0 -0 -0 -0 -0 -0 -0 -0 -0 -0 -0 -0 -0 -0 -0 -0
-0 -0 -0 -0 -0 -0 -0 -0 -0 -0 -0 -0 -0 -0 -0 -0 -0 -0 -0 -0 -0 -0 -0 -0 -0 -0 -0 -0 -0 -0 -0 -0 -0 -0 -0 -0 -0 -0 -0 -0 -0 -0 -0 -0 -0 -0 -0
-0 -0 -0 -0 -0 -0 -0 -0 -0 -0 -0 -0 -0 -0 -0 -0 -0 -0 -0 -0 -0 -0 -0 -0 -0 -0 -0 -0 -0 -0 -0 -0 -0 -0 -0 -0 -0 -0 -0 -0 -0 -0 -0 -0 -0 -0 -0
-0 -0 -0 -0 -0 -0 -0 -0 -0 -0 -0 -0 -0 -0 -0 -0 -0 -0 -0 -0 -0 -0 -0 -0 -0 -0 -0 -0 -0 -0 -0 -0 -0 -0 -0 -0 -0 -0 -0 -0 -0 -0 -0 -0 -0 -0 -0
-0 -0 -0 -0 -0 -0 -0 -0 -0 -0 -0 -0 -0 -0 -0 -0 -0 -0 -0 -0 -0 -0 -0 -0 -0 -0 -0 -0 -0 -0 -0 -0 -0 -0 -0 -0 -0 -0 -0 -0 -0 -0 -0 -0 -0 -0 -0
-0 -0 -0 -0 -0 -0 -0 -0 -0 -0 -0 -0 -0 -0 -0 -0 -0 -0 -0 -0 -0 -0 -0 -0 -0 -0 -0 -0 -0 -0 -0 -0 -0 -0 -0 -0 -0 -0 -0 -0 -0 -0 -0 -0 -0 -0 -0
-0 -0 -0 -0 -0 -0 -0 -0 -0 -0 -0 -0 -0 -0 -0 -0 -0 -0 -0 -0 -0 -0 -0 -0 -0 -0 -0 -0 -0 -0 -0 -0 -0 -0 -0 -0 -0 -0 -0 -0 -0 -0 -0 -0 -0 -0 -5
-0 -0 -0 -0 -0 -0 -0 -0 -0 -0 -0 -0 -0 -0 -0 -0 -0 -0 -0 -0 -0 -0 -0 -0 -0 -0 -0 -0 -0 -0 -0 -0 -0 -0 -0 -0 -0 -0 -0 -0 -0 -0 -0 -0 -9 -0 -1
-0 -0 -0 -0 -0 -0 -0 -0 -0 -0 -0 -0 -0 -0 -0 -0 -0 -0 -0 -0 -0 -0 -0 -0 -0 -0 -0 -0 -0 -0 -0 -0 -0 -0 -0 -0 -0 -0 -0 -0 -0 -0 -2 -22 -1 -0 -4
-0 -0 -0 -0 -0 -0 -0 -0 -0 -0 -0 -0 -0 -0 -0 -0 -0 -0 -0 -0 -0 -0 -0 -0 -0 -0 -0 -0 -0 -0 -0 -0 -0 -0 -0 -0 -0 -0 -0 -0 -0 -0 -1 -0 -0 -0 -0
-2 -1 -0 -1 -1 -0 -0 -0 -0 -0 -0 -0 -0 -0 -0 -0 -0 -0 -0 -0 -0 -0 -0 -0 -0 -0 -0 -0 -0 -0 -0 -0 -0 -0 -0 -0 -0 -0 -0 -0 -0 -0 -0 -0 -0 -0 -0
Wind_Speed
17 16 15 13 13 11 10 8 7 6 5 5 5 5 5 4 5 5 6 7 7 8 9 10 10 10 8 6 7 5 2 2 5 4 4 4 5 3 6 3 6 13 13 10 11 12 15
16 16 15 14 13 11 10 9 8 7 7 7 6 5 5 5 6 6 7 7 8 8 9 10 11 12 7 4 2 3 3 2 4 5 3 4 5 6 8 7 8 9 12 17 17 16 16
14 13 13 13 12 11 10 9 8 7 6 6 6 5 5 6 6 6 6 7 7 7 8 9 10 7 5 8 1 1 1 2 3 4 3 3 5 6 7 8 4 11 16 17 18 15 8
15 14 14 13 12 11 10 10 9 8 8 8 7 7 6 6 6 6 6 7 8 8 8 8 8 9 5 2 4 3 2 0 1 1 3 3 3 6 6 7 9 11 11 11 1 4 1
15 15 14 14 13 13 12 12 11 11 10 10 9 8 7 7 7 7 7 9 8 7 6 6 7 5 6 4 2 2 3 3 2 1 2 3 4 6 4 8 11 11 11 13 13 4 2
14 14 15 15 15 14 14 14 13 12 12 11 10 9 8 7 7 7 7 6 3 6 6 5 4 5 4 3 3 2 2 2 3 3 4 4 5 7 8 7 9 15 17 18 19 14 11
16 16 16 16 15 15 15 15 15 14 13 12 11 9 8 9 8 7 4 5 6 6 1 6 5 3 5 3 3 2 1 2 3 5 7 3 7 9 12 12 14 14 15 19 19 18 18
17 17 17 17 17 17 18 18 17 15 14 12 10 9 8 8 7 5 7 3 6 6 5 4 3 1 2 3 2 4 3 4 3 7 4 8 10 8 6 6 8 12 16 19 18 13 19
18 18 18 19 19 19 19 19 18 16 14 11 9 8 8 7 4 4 4 5 4 4 3 4 3 4 3 3 3 5 4 3 6 7 5 9 11 1 6 8 12 14 16 18 19 20 21
19 19 19 19 19 19 20 20 19 17 13 9 7 7 6 5 2 3 4 3 3 3 7 5 2 4 2 1 2 3 2 4 4 6 7 9 4 3 9 13 12 15 6 12 17 15 11
19 20 21 21 21 21 22 21 20 17 12 8 4 4 5 3 4 0 5 4 2 5 6 4 4 2 2 3 3 4 2 3 7 9 4 2 7 12 12 10 8 12 10 15 17 17 19
20 21 22 23 24 25 23 21 21 18 14 12 9 3 3 4 3 4 5 2 5 6 2 5 2 3 3 5 3 3 1 2 3 7 9 13 10 5 10 12 8 12 13 19 20 11 9
18 19 20 21 21 22 22 23 22 20 17 14 11 10 1 2 3 5 3 4 6 5 3 4 2 5 3 5 2 5 4 10 9 9 2 12 1 5 7 11 4 7 15 8 7 7 8
17 18 18 20 21 22 22 23 23 22 18 14 10 9 1 7 4 4 4 6 5 4 5 2 3 3 3 9 4 6 8 2 12 13 10 7 4 2 9 7 8 15 8 7 9 9 17
18 19 20 21 23 24 25 23 23 22 18 13 9 4 4 8 4 4 6 5 8 5 4 6 2 4 4 1 7 6 8 6 6 11 9 7 4 4 12 6 7 6 7 10 12 19 19
20 21 23 25 26 25 27 26 25 23 18 12 3 1 5 11 5 6 5 6 4 6 5 3 4 4 3 6 6 6 2 5 3 7 9 4 11 8 2 7 11 9 6 6 7 8 12
21 22 24 25 25 25 25 27 29 26 19 8 5 3 7 9 5 5 2 6 8 6 4 6 3 2 3 4 5 5 4 4 2 5 6 8 8 4 10 10 12 13 13 8 10 9 11
20 21 22 23 23 24 26 27 28 26 22 6 2 1 8 6 2 3 4 4 2 3 4 4 4 5 3 3 4 3 2 3 3 6 7 4 8 10 17 16 9 9 9 2 5 12 15
17 19 20 22 23 23 24 25 27 24 16 5 2 2 4 6 1 5 6 6 6 2 5 2 2 5 2 2 5 2 2 6 1 6 7 8 3 8 6 6 5 4 9 8 15 15 22
16 18 20 22 22 24 25 26 27 26 16 5 2 2 4 6 4 8 8 4 5 4 4 4 2 0 2 4 1 4 4 2 1 7 9 6 9 12 11 15 17 22 22 21 21 14 21
15 17 19 21 22 24 26 28 28 27 18 4 4 4 3 4 6 6 4 2 5 3 2 1 2 1 3 4 6 4 2 6 7 3 5 5 9 14 16 19 20 23 23 23 25 25 25
13 15 17 19 22 22 24 27 30 29 24 4 2 2 4 5 2 3 2 3 2 3 3 2 4 1 4 6 6 9 11 9 7 3 2 6 9 14 18 20 21 24 24 25 24 25 27
11 12 14 16 18 21 22 24 26 29 19 5 2 1 4 1 2 3 3 4 4 1 3 3 1 5 7 7 9 10 10 11 13 12 12 11 6 8 10 10 19 19 12 12 19 23 22
9 10 12 13 15 17 19 21 22 23 19 5 4 4 4 4 2 2 5 3 5 2 1 2 4 4 4 7 14 14 15 15 15 15 13 11 11 9 14 18 8 2 14 23 22 19 20
7 8 9 10 11 13 15 18 19 19 18 8 5 4 4 3 2 5 6 4 4 4 3 4 3 3 5 8 7 6 5 6 7 11 13 14 12 8 6 12 22 20 15 22 23 22 23
8 7 6 7 7 9 11 13 15 16 17 4 7 5 3 1 6 3 7 5 3 4 5 4 2 3 2 3 2 3 3 5 3 5 8 8 11 11 15 19 16 15 26 17 15 17 11
9 8 6 7 7 7 8 9 11 12 13 7 4 8 3 2 4 5 5 5 3 1 2 2 4 5 4 3 3 3 4 2 5 5 6 8 9 14 13 17 16 19 11 10 12 13 26
11 10 8 7 7 6 6 5 7 9 11 9 4 6 5 3 3 7 5 5 4 4 2 7 3 6 4 4 2 2 4 4 6 9 10 8 9 12 12 14 18 12 19 25 21 22 23
12 12 8 8 7 6 5 5 5 6 7 8 2 4 4 3 4 4 9 11 8 3 4 6 4 2 3 4 3 3 5 5 8 8 7 9 8 11 13 15 23 24 25 23 19 21 20
Wind_Direction
36 38 39 45 49 55 54 48 44 34 11 359 350 337 326 318 308 302 303 301 299 300 310 312 312 313 280 209 72 72 296 223 291 318 351 329 284 303 267 285 273 250 278 292 285 277 270
33 32 30 33 38 42 40 38 33 20 7 356 349 335 319 314 311 308 303 301 303 307 314 314 314 308 253 199 23 43 4 312 9 331 11 321 354 346 290 283 273 343 289 280 276 272 274
37 35 32 30 32 30 28 27 25 13 1 346 338 330 323 322 316 308 302 303 302 304 306 306 304 297 257 71 15 32 252 34 2 350 330 9 334 286 352 277 320 276 284 283 269 253 285
34 33 32 29 28 25 22 16 8 358 350 345 340 336 330 321 313 306 301 296 289 285 284 282 286 275 57 93 345 204 228 170 272 275 296 318 309 289 266 319 260 262 276 275 149 153 203
33 31 27 26 22 18 13 8 2 356 349 345 340 332 327 323 317 308 301 300 290 268 251 257 255 290 106 146 171 29 296 318 323 238 300 273 273 294 244 256 280 219 277 294 302 57 283
32 28 25 22 18 13 9 4 357 351 345 338 333 329 322 314 306 302 301 268 172 185 212 238 265 237 153 71 44 348 74 305 303 291 249 245 248 263 230 254 281 323 306 302 298 303 247
30 27 22 18 15 11 7 0 353 346 340 336 331 326 324 318 309 294 230 186 195 163 213 11 22 52 87 65 213 102 19 255 274 256 275 126 276 262 321 327 307 304 290 287 291 300 297
27 24 21 18 14 10 5 359 352 345 337 331 326 325 319 315 306 272 258 286 36 359 110 49 68 100 11 325 267 133 273 274 265 287 298 240 251 31 347 317 299 290 289 287 293 306 319
26 22 19 14 11 8 4 358 351 343 334 326 321 313 312 312 291 232 65 57 339 310 234 86 57 44 29 290 42 56 295 341 291 284 282 288 323 355 301 300 290 286 286 300 305 314 292
23 20 16 13 10 7 3 359 355 350 345 337 319 307 308 329 224 135 79 9 307 300 223 98 134 83 184 315 137 359 7 310 233 304 316 277 64 312 305 298 312 291 355 308 301 309 306
22 18 14 12 8 5 3 358 359 0 9 11 350 310 298 239 82 178 25 313 295 238 245 61 88 42 44 318 16 101 22 245 292 309 287 285 317 329 306 312 337 291 330 299 288 283 296
19 18 14 11 7 3 359 3 360 6 12 15 26 13 301 225 90 36 324 290 239 226 143 116 61 354 244 40 66 5 346 227 296 286 251 270 293 292 332 307 296 300 289 290 266 262 262
21 19 16 13 9 5 359 359 4 4 4 4 358 350 353 345 43 336 298 224 223 274 159 90 25 351 317 7 55 8 41 45 26 326 215 318 56 77 352 332 280 314 330 299 247 192 247
23 22 20 18 14 10 6 1 0 1 356 345 332 305 17 53 335 298 229 231 258 38 28 37 344 310 348 354 85 351 322 302 44 340 293 333 196 186 32 345 316 304 295 289 293 289 303
21 21 20 19 16 12 8 4 360 356 351 335 313 183 63 5 333 248 249 238 23 26 2 349 261 259 126 105 325 318 74 38 34 13 350 325 240 353 344 336 299 23 286 347 289 277 268
19 18 17 16 13 10 6 3 1 356 350 338 267 150 42 343 310 244 248 65 101 44 345 296 339 344 324 26 322 354 26 47 23 16 334 41 291 277 63 327 251 264 19 302 248 281 282
17 16 15 14 9 6 4 2 1 356 348 344 251 220 28 336 257 240 37 66 112 56 9 355 13 316 47 353 331 327 38 95 14 4 314 325 241 250 266 288 299 293 286 249 271 268 283
16 12 12 11 8 5 4 2 0 357 343 288 301 222 7 321 206 29 72 65 1 38 36 60 45 36 7 354 302 288 303 14 36 339 332 22 308 287 288 304 313 269 249 318 302 283 290
14 10 10 11 8 6 5 4 360 0 354 311 50 47 38 298 342 99 116 92 59 68 34 51 92 10 332 304 299 250 287 104 50 343 13 6 245 302 172 162 135 197 194 271 293 281 270
12 11 10 11 6 4 4 6 4 357 349 300 236 184 80 57 19 108 130 121 117 48 75 46 85 268 289 267 244 299 266 86 163 290 313 267 246 249 270 304 308 292 290 295 284 271 282
11 10 8 10 8 5 4 4 3 357 348 295 344 72 351 53 61 89 80 100 137 128 114 211 135 10 358 282 280 248 296 298 291 114 261 272 274 278 288 299 293 289 290 286 277 279 274
9 10 8 9 8 7 6 6 2 356 337 69 6 145 97 86 77 116 101 85 147 122 290 149 278 151 299 282 304 298 311 299 282 303 274 295 275 302 290 283 277 276 275 274 276 273 273
360 7 6 8 9 9 7 8 7 1 349 60 62 99 296 151 105 249 61 119 139 162 119 331 345 298 281 305 313 299 289 276 272 276 286 285 276 301 285 303 306 286 267 279 303 300 294
343 358 3 4 9 8 9 11 16 10 6 40 28 313 274 108 237 87 144 145 161 179 230 178 221 266 32 320 299 270 252 253 255 252 242 249 265 274 282 299 262 59 323 300 299 304 295
322 338 352 356 5 9 12 11 16 19 357 49 29 328 333 117 111 160 173 172 172 173 232 263 232 288 340 292 284 307 191 212 218 236 227 227 253 278 265 274 283 292 316 331 310 307 296
293 305 326 337 358 9 10 12 10 15 1 27 36 339 347 129 206 94 179 197 238 212 177 193 186 304 267 281 270 287 291 359 293 305 210 255 258 247 273 287 285 324 310 323 326 287 20
271 282 295 318 336 354 3 7 6 357 355 345 46 2 319 280 160 178 205 204 179 197 268 131 171 195 235 235 258 269 279 61 260 280 276 261 264 254 261 268 276 286 320 358 282 306 325
262 264 272 291 306 324 335 351 348 344 337 333 58 22 345 312 177 219 210 195 163 221 236 104 225 188 210 241 276 253 243 263 283 277 278 271 275 276 275 282 286 336 319 306 310 314 310
238 254 255 268 277 288 293 300 307 320 326 318 348 19 355 275 344 259 248 249 247 254 263 165 327 169 224 237 226 315 253 239 253 276 273 266 245 280 277 267 291 298 292 290 295 301 307